User: anonymous
Location: Trondheim
(63.4170°N, 10.4170°E)
Time: 05:55:26
(UTC+02:00)
Language:

Iridium 82 - Orbit

View from above orbital plane
View from above orbital plane
View from above satellite
View from above satellite

Ground track
Ground track

The orbit data is extracted from the following two-line orbital elements,

1 25467U 98051A   14233.20430388  .00000191  00000-0  61165-4 0   252
2 25467 086.3929 093.0425 0002267 094.0470 266.0985 14.34223544838846
Epoch (UTC): 21 August 2014 04:54:11
Eccentricity: 0.0002267
inclination: 86.3929°
perigee height: 776 km
apogee height: 779 km
right ascension of ascending node: 93.0425°
argument of perigee: 94.0470°
revolutions per day: 14.34223544
mean anomaly at epoch: 266.0985°
orbit number at epoch: 83884

The dashed part of the orbit path shows where the satellite is in the earth's shadow,  

DLR